Weather reports worldwide

Advertisment
Shoreham Airport, United Kingdom (3876): temperature & dewpoint: 04.12.2018 10:00:00 - 10.12.2018 10:00:00 (GMT)Shoreham Airport, United Kingdom (3876): wind speed & gusts: 04.12.2018 10:00:00 - 10.12.2018 10:00:00 (GMT)Shoreham Airport, United Kingdom (3876): wind direction: 04.12.2018 10:00:00 - 10.12.2018 10:00:00 (GMT)Shoreham Airport, United Kingdom (3876): reduced air pressure: 04.12.2018 10:00:00 - 10.12.2018 10:00:00 (GMT)Shoreham Airport, United Kingdom (3876): visibility: 04.12.2018 10:00:00 - 10.12.2018 10:00:00 (GMT)Shoreham Airport, United Kingdom (3876): precipitation: 04.12.2018 10:00:00 - 10.12.2018 10:00:00 (GMT)
Date & Time tt [°C] td [°C] ff [km/h] ff [kn] fx [km/h] fx [kn] dd ppp [hPa] vv [km] rr [mm]
10.12.2018 10:00:00 - - - - - - - - - -
10.12.2018 09:00:00 8,2 5,0 18 10 - - WNW 1027,4 10 0,0
10.12.2018 08:00:00 6,9 5,2 13 7 - - WNW 1026,8 10 0,0
10.12.2018 07:00:00 5,7 3,9 9 5 - - W 1026,6 - 0,0
10.12.2018 06:00:00 7,0 4,9 11 6 - - W 1026,1 - 0,0
10.12.2018 05:00:00 7,6 4,4 21 11 - - W 1025,7 - 0,0
10.12.2018 04:00:00 7,8 4,9 24 13 - - W 1025,1 - 0,0
10.12.2018 03:00:00 7,9 5,6 16 9 - - W 1024,9 - 0,0
10.12.2018 02:00:00 6,8 5,5 13 7 - - W 1024,6 - 0,0
10.12.2018 01:00:00 6,0 4,8 15 8 - - WSW 1024,0 - 0,0
10.12.2018 00:00:00 4,6 3,9 16 9 - - WSW 1023,7 - 0,0
09.12.2018 23:00:00 3,9 3,0 11 6 - - WSW 1023,0 - 0,0
09.12.2018 22:00:00 4,2 2,7 5 3 - - SW 1022,3 - 0,0
09.12.2018 21:00:00 6,4 4,9 13 7 - - W 1021,5 - 0,0
09.12.2018 20:00:00 7,1 4,4 15 8 - - W 1021,0 - 0,0
09.12.2018 19:00:00 8,0 4,2 18 10 - - W 1019,7 10 0,0
09.12.2018 18:00:00 9,1 5,1 22 12 - - W 1018,6 10 0,0
09.12.2018 17:00:00 9,4 4,8 18 10 - - W 1017,2 10 0,0
09.12.2018 16:00:00 9,9 5,6 18 10 - - WNW 1016,2 10 0,0
09.12.2018 15:00:00 10,3 5,4 28 15 - - WNW 1014,4 10 0,0
09.12.2018 14:00:00 10,5 5,9 22 12 - - WNW 1012,6 10 0,0
09.12.2018 13:00:00 10,2 6,8 22 12 - - NW 1011,2 10 0,0
09.12.2018 12:00:00 11,2 6,6 31 17 52 28 NW 1009,7 10 0,0
09.12.2018 11:00:00 11,2 6,2 31 17 63 34 WNW 1008,1 10 0,0
09.12.2018 10:00:00 11,3 6,5 34 18 52 28 WNW 1006,9 10 0,0
09.12.2018 09:00:00 10,1 6,6 28 15 52 28 W 1005,7 10 0,0
09.12.2018 08:00:00 9,8 6,2 29 16 52 28 W 1004,4 - 0,0
09.12.2018 07:00:00 9,9 6,3 34 18 57 31 W 1003,2 - 0,0
09.12.2018 06:00:00 9,6 6,1 35 19 52 28 W 1002,7 - 0,0
09.12.2018 05:00:00 9,6 5,8 31 17 50 27 W 1002,4 - 0,0
09.12.2018 04:00:00 8,9 5,7 34 18 63 34 W 1002,2 - 0,0
09.12.2018 03:00:00 9,1 5,4 37 20 55 30 WSW 1002,4 - 0,0
09.12.2018 02:00:00 8,9 5,4 35 19 61 33 W 1002,5 - 0,0
09.12.2018 01:00:00 8,6 5,2 39 21 55 30 W 1002,3 - 0,0
09.12.2018 00:00:00 9,2 6,0 26 14 50 27 W 1001,7 - 0,4
08.12.2018 23:00:00 9,5 6,1 34 18 50 27 W 1001,5 - 0,0
08.12.2018 22:00:00 8,4 5,8 22 12 54 29 W 1001,6 - 0,0
08.12.2018 21:00:00 9,5 7,1 31 17 54 29 W 1001,0 - 0,0
08.12.2018 20:00:00 10,0 6,5 26 14 55 30 W 1000,8 10 0,0
08.12.2018 19:00:00 10,6 6,5 37 20 63 34 W 1000,5 10 0,0
08.12.2018 18:00:00 10,9 8,4 26 14 48 26 W 1000,7 10 0,0
08.12.2018 17:00:00 11,7 9,6 35 19 52 28 WSW 1001,0 7 0,0
08.12.2018 16:00:00 12,0 10,5 46 25 70 38 WSW 1001,1 7 0,2
08.12.2018 15:00:00 11,8 11,1 35 19 61 33 SW 1002,2 2,8 0,0
08.12.2018 14:00:00 11,6 10,8 35 19 63 34 SW 1003,7 3,0 0,0
08.12.2018 13:00:00 11,1 10,2 26 14 - - WSW 1005,6 3,2 0,4
08.12.2018 12:00:00 11,4 8,0 29 16 52 28 W 1006,9 9 0,0
08.12.2018 11:00:00 11,4 6,9 37 20 55 30 W 1007,8 10 0,0
08.12.2018 10:00:00 10,6 5,9 29 16 48 26 WSW 1008,0 10 0,0
08.12.2018 09:00:00 9,7 5,8 28 15 - - WSW 1008,4 10 0,0
08.12.2018 08:00:00 9,3 6,0 24 13 - - W 1008,2 - 0,0
08.12.2018 07:00:00 9,6 5,6 26 14 - - W 1007,5 - 0,0
08.12.2018 06:00:00 9,4 5,3 34 18 57 31 W 1007,1 - 0,0
08.12.2018 05:00:00 9,4 5,3 34 18 54 29 WSW 1006,5 - 0,0
08.12.2018 04:00:00 9,4 5,2 37 20 55 30 WSW 1006,9 - 0,0
08.12.2018 03:00:00 9,5 5,6 35 19 52 28 WSW 1007,2 - 0,0
08.12.2018 02:00:00 9,2 5,4 31 17 59 32 WSW 1006,9 - 0,0
08.12.2018 01:00:00 9,2 5,1 35 19 55 30 WSW 1007,1 - 0,0
08.12.2018 00:00:00 9,2 5,1 37 20 59 32 WSW 1007,4 - 0,0
07.12.2018 23:00:00 9,0 4,9 39 21 57 31 WSW 1007,4 - 0,0
07.12.2018 22:00:00 8,2 4,2 31 17 48 26 W 1007,4 - 0,0
07.12.2018 21:00:00 7,4 3,9 28 15 52 28 W 1007,3 - 0,0
07.12.2018 20:00:00 7,5 3,4 28 15 - - W 1007,3 10 0,0
07.12.2018 19:00:00 8,1 3,9 28 15 52 28 W 1006,5 10 0,0
07.12.2018 18:00:00 7,4 3,7 26 14 - - W 1006,1 10 0,0
07.12.2018 17:00:00 7,5 3,6 21 11 - - W 1005,1 10 0,0
07.12.2018 16:00:00 7,8 4,5 21 11 - - W 1004,1 10 0,0
07.12.2018 15:00:00 9,0 5,6 29 16 - - W 1003,7 10 0,0
07.12.2018 14:00:00 8,6 5,4 29 16 57 31 W 1002,8 10 0,0
07.12.2018 13:00:00 10,3 7,3 29 16 52 28 W 1001,4 10 0,0
07.12.2018 12:00:00 10,2 8,7 22 12 46 25 WSW 1001,5 - 0,2
07.12.2018 11:00:00 10,7 9,0 28 15 63 34 WNW 1000,0 5 0,6
07.12.2018 10:00:00 11,9 11,2 46 25 67 36 SSW 1000,7 3,5 1,8
07.12.2018 09:00:00 11,8 11,2 42 23 67 36 SSW 1002,1 3,0 1,6
07.12.2018 08:00:00 11,8 11,4 44 24 67 36 SSW 1004,0 1,8 0,6
07.12.2018 07:00:00 12,5 11,4 46 25 65 35 SW 1005,0 - 0,0
07.12.2018 06:00:00 12,4 11,7 39 21 59 32 SW 1006,4 - 0,0
07.12.2018 05:00:00 12,3 11,7 46 25 65 35 SW 1007,9 - 0,0
07.12.2018 04:00:00 12,3 12,0 37 20 52 28 SW 1009,4 - 0,0
07.12.2018 03:00:00 12,3 12,0 34 18 46 25 SW 1010,5 - 0,0
07.12.2018 02:00:00 12,4 12,2 31 17 46 25 SW 1011,4 - 0,2
07.12.2018 01:00:00 12,5 12,2 29 16 - - SW 1012,3 - 0,0
07.12.2018 00:00:00 12,4 12,2 31 17 46 25 SW 1013,0 - 0,0
06.12.2018 23:00:00 12,4 12,1 29 16 46 25 SW 1013,5 - 0,2
06.12.2018 22:00:00 12,3 12,0 31 17 - - SW 1014,2 - 1,0
06.12.2018 21:00:00 12,3 12,0 31 17 48 26 SW 1014,8 - 0,4
06.12.2018 20:00:00 12,4 12,0 31 17 50 27 SW 1015,5 5 0,0
06.12.2018 19:00:00 12,2 11,8 34 18 46 25 SW 1015,4 4,5 0,4
06.12.2018 18:00:00 12,1 11,5 28 15 - - SW 1015,8 4,5 0,2
06.12.2018 17:00:00 12,3 11,2 31 17 46 25 SW 1015,7 6 0,0
06.12.2018 16:00:00 12,2 11,3 34 18 - - SW 1015,4 5 0,0
06.12.2018 15:00:00 11,9 11,3 28 15 46 25 SW 1015,8 4,5 0,0
06.12.2018 14:00:00 12,3 11,1 15 8 - - WSW 1016,0 9 0,0
06.12.2018 13:00:00 12,4 11,3 29 16 - - WSW 1016,0 10 0,0
06.12.2018 12:00:00 12,3 11,5 24 13 - - SW 1016,3 10 0,0
06.12.2018 11:00:00 12,0 11,4 26 14 - - SW 1016,7 8 0,0
06.12.2018 10:00:00 12,2 11,2 15 8 - - WSW 1016,3 10 0,0
06.12.2018 09:00:00 12,0 10,9 18 10 - - SW 1016,1 10 0,0
06.12.2018 08:00:00 11,8 10,8 18 10 - - SW 1015,5 10 0,0
06.12.2018 07:00:00 11,4 10,8 8 4 - - SW 1015,1 - 0,0
06.12.2018 06:00:00 11,2 10,7 5 3 - - WSW 1014,8 - 0,0
06.12.2018 05:00:00 11,4 10,9 11 6 - - W 1014,9 - 0,0
06.12.2018 04:00:00 11,2 10,9 11 6 - - W 1014,3 - 0,0
06.12.2018 03:00:00 11,1 10,8 21 11 - - W 1014,3 - 0,0
06.12.2018 02:00:00 11,0 10,6 13 7 - - WSW 1013,4 - 0,0
06.12.2018 01:00:00 10,9 10,3 15 8 - - WSW 1012,4 - 0,0
06.12.2018 00:00:00 11,5 11,0 16 9 - - W 1012,0 - 0,0
05.12.2018 23:00:00 12,0 11,4 16 9 - - W 1011,7 - 0,0
05.12.2018 22:00:00 12,5 12,2 16 9 - - WSW 1011,2 - 0,2
05.12.2018 21:00:00 12,6 12,3 15 8 - - W 1010,6 - 0,0
05.12.2018 20:00:00 12,2 11,9 16 9 - - SW 1010,1 - 0,0
05.12.2018 19:00:00 12,4 11,8 26 14 - - SSW 1010,2 8 0,2
05.12.2018 18:00:00 12,4 11,8 28 15 46 25 SSW 1010,3 8 0,0
05.12.2018 17:00:00 12,2 11,7 29 16 - - SSW 1010,3 4,5 2,4
05.12.2018 16:00:00 12,1 11,4 22 12 - - S 1010,7 1,2 0,8
05.12.2018 15:00:00 12,4 11,3 28 15 - - SSW 1011,8 6 0,0
05.12.2018 14:00:00 12,5 11,5 28 15 - - SSW 1012,7 8 0,0
05.12.2018 13:00:00 12,6 11,6 29 16 - - S 1013,4 10 0,0
05.12.2018 12:00:00 12,8 11,7 26 14 - - S 1014,1 10 0,0
05.12.2018 11:00:00 12,5 11,6 28 15 - - S 1015,7 10 0,0
05.12.2018 10:00:00 12,1 11,4 11 6 - - SSW 1016,4 8 0,0
05.12.2018 09:00:00 12,2 11,7 26 14 - - SSW 1016,5 6 0,0
05.12.2018 08:00:00 12,1 11,7 24 13 - - SSW 1016,3 7 0,0
05.12.2018 07:00:00 12,0 11,7 21 11 - - SSW 1016,6 - 0,4
05.12.2018 06:00:00 11,6 11,4 21 11 - - S 1017,1 - 0,8
05.12.2018 05:00:00 11,3 11,0 13 7 - - SSE 1017,9 - 1,2
05.12.2018 04:00:00 11,2 10,8 13 7 - - S 1018,5 - 0,6
05.12.2018 03:00:00 10,6 10,0 16 9 - - SE 1019,2 - 0,4
05.12.2018 02:00:00 10,1 9,1 21 11 - - SE 1019,8 - 0,2
05.12.2018 01:00:00 10,2 7,6 21 11 - - SE 1020,3 - 0,0
05.12.2018 00:00:00 10,2 6,8 16 9 - - SE 1021,3 - 0,0
04.12.2018 23:00:00 7,7 3,8 16 9 - - E 1022,0 - 0,0
04.12.2018 22:00:00 7,1 3,7 11 6 - - ENE 1022,6 - 0,0
04.12.2018 21:00:00 7,3 3,6 11 6 - - ENE 1022,5 - 0,2
04.12.2018 20:00:00 7,2 4,6 11 6 - - NNE 1023,8 10 0,0
04.12.2018 19:00:00 8,1 4,8 5 3 - - - 1023,5 10 0,0
04.12.2018 18:00:00 9,1 3,5 4 2 - - SSW 1024,0 10 0,0
04.12.2018 17:00:00 8,8 5,2 9 5 - - SE 1023,4 10 0,0
04.12.2018 16:00:00 8,4 5,0 5 3 - - SE 1023,2 10 0,0
04.12.2018 15:00:00 8,1 4,4 5 3 - - SE 1022,8 10 0,0
04.12.2018 14:00:00 9,3 4,7 8 4 - - SSE 1023,1 10 0,0
04.12.2018 13:00:00 10,2 6,5 4 2 - - N 1022,6 10 0,0
04.12.2018 12:00:00 7,8 4,8 11 6 - - NNW 1022,8 10 0,0
04.12.2018 11:00:00 6,5 4,0 11 6 - - N 1022,7 10 0,0
04.12.2018 10:00:00 5,6 3,8 15 8 - - NNW 1022,4 10 0,0

tt = temperature
td = dewpoint
ff = wind speed
fx = gusts
dd = wind direction
ppp = reduced air pressure
vv = visibility
rr = precipitation

Next stations